Welcome to the New NWS' Forecast!
Most changes are behind the scenes, but click here for differences you might notice.
Latest weather observations around

Whidbey Island, Naval Air Station (KNUW)

Using English Units (Switch to International System of Units)
Date/ Time (PST) Wind (mph) Vis. (mi) Weather Sky Cond. Temp (°F) Rel. Humidity Wind Chill (°F) Heat Index (°F) Pressure Precip. (in)
Air Dwpt 6 hour Altimeter (inHg) Sea level (inHg) 1 hr 3 hr 6 hr
Max Min
Jan 17 22:56 S 21 10 Mostly Cloudy and Windy SCT025 BKN070 BKN095 54 47     77%     29.72 29.72 0    
Jan 17 21:56 SSE 24 10 Cloudy and Windy SCT025 BKN060 BKN100 OVC150 54 47     77%     29.69 29.69      
Jan 17 20:56   10 Cloudy SCT025 BKN050 BKN100 OVC150 54 47     77%     29.67 29.67      
Jan 17 19:56 SSE 22 10 Cloudy and Windy FEW025 BKN050 BKN100 OVC150 55 46     72%     29.69 29.69      
Jan 17 18:56   10 Cloudy FEW025 BKN050 BKN100 OVC150 54 46     74%     29.7 29.7      
Jan 17 17:56   10 Cloudy FEW025 SCT050 BKN100 OVC220 54 47     77%     29.71 29.71      
Jan 17 16:56   10 Cloudy FEW050 SCT080 SCT120 OVC200 55 47     74%     29.72 29.72      
Jan 17 15:56   10 Cloudy SCT050 BKN090 BKN110 OVC200 54 46     74%     29.74 29.73 0   0
Jan 17 14:56 SSE 15 10 Cloudy SCT055 BKN085 BKN150 OVC220 55 43     64%     29.75   0    
Jan 17 13:56 SSE 11 10 Cloudy SCT055 BKN085 BKN150 OVC220 55 41     59%     29.75        
Jan 17 12:56 SE 15 10 Cloudy SCT055 SCT085 BKN150 OVC220 54 41     61%     29.79 29.78      
Jan 17 11:56   10 Cloudy SCT060 SCT095 BKN210 OVC250 56 41     57%     29.82 29.82      
Jan 17 10:56 SE 24 10 Cloudy and Windy FEW045 SCT090 BKN210 OVC240 53 42     66%     29.87 29.87      
Jan 17 09:56   10 Cloudy FEW042 SCT090 BKN220 OVC240 54 41     61%     29.92 29.91     0
Jan 17 07:56   10 Cloudy SCT035 BKN090 OVC120 54 38     55%     29.94 29.93      
Jan 17 06:56   10 Cloudy SCT035 SCT055 OVC100 51 39     63%     29.97 29.97   0  
Jan 17 05:56 ESE 14 10 Cloudy FEW035 SCT055 BKN110 OVC170 50 37     61% 45   30        
Jan 17 04:56 SE 10 10 Cloudy SCT035 BKN070 OVC085 52 36     54%     30.03 30.03 0    
Jan 17 03:56 ESE 8 10 Cloudy SCT030 BKN080 OVC120 49 39     69% 45   30.07 30.06      
Jan 17 02:56 SSE 10 10 Cloudy SCT030 BKN100 OVC140 50 37     61% 46   30.08 30.08      
Jan 17 00:56 SE 5 10 Cloudy FEW040 FEW100 BKN140 OVC250 49 40     71% 47   30.13 30.13      
Jan 16 23:56 SE 8 10 Cloudy FEW030 FEW090 BKN140 OVC250 49 39     69% 45   30.15 30.15      
Jan 16 22:56 ESE 10 10 Cloudy FEW030 FEW090 BKN130 OVC250 52 38     59%     30.18        
Jan 16 21:56 ESE 14 10 Cloudy FEW035 FEW090 BKN130 OVC250 51 39     63%     30.2 30.19      
Jan 16 20:56 ESE 10 10 Mostly Cloudy FEW025 FEW090 SCT120 BKN250 51 40     65%     30.23 30.23      
Jan 16 19:56 SE 11 10 Mostly Cloudy FEW025 SCT090 SCT150 BKN240 52 40     63%     30.25 30.24      
Jan 16 17:56 SSE 17 10 Cloudy FEW025 FEW040 SCT090 SCT150 OVC230 51 42     71%     30.24 30.24      
Jan 16 15:56 SSE 17 10 Mostly Cloudy FEW025 FEW040 SCT120 BKN250 54 42     64%     30.24 30.24      
Jan 16 14:56 SSE 15 10 Mostly Cloudy FEW025 SCT040 SCT100 BKN250 55 42     62%     30.24 30.24      
Jan 16 13:56 SSE 18 10 Mostly Cloudy FEW025 SCT040 BKN160 BKN250 56 41     57%     30.21 30.21      
Jan 16 12:56 S 21 10 Mostly Cloudy and Windy FEW022 SCT036 SCT160 BKN250 57 42     57%     30.21 30.2      
Jan 16 11:56   10 Mostly Cloudy FEW019 SCT036 SCT100 BKN190 BKN250 56 43     62%     30.19 30.19      
Jan 16 10:56 S 22 10 Mostly Cloudy and Windy SCT024 SCT045 BKN110 BKN180 54 44     69%     30.18 30.18      
Jan 16 10:38   10 Mostly Cloudy SCT023 BKN110 BKN190 54 44     69%     30.18        
Notice The following observation data may not be complete
Jan 16 08:56   10 Cloudy SCT014 SCT042 BKN170 OVC230          %              
Jan 16 07:56   10 Cloudy SCT013 SCT040 BKN170 OVC210 52 45     77%     30.09 30.09      
Jan 16 06:56 SSE 17 10 Cloudy FEW023 SCT045 SCT110 OVC170 52 45     77%     30.07 30.07      
Jan 16 05:56   10 Cloudy FEW024 SCT050 SCT130 OVC160 52 46     80%     30.07 30.07      
Jan 16 03:56   10 Mostly Cloudy SCT018 SCT090 BKN140 54 47     77%     30.04 30.03     0
Jan 16 02:56   10 Mostly Cloudy SCT025 SCT110 BKN140 54 47     77%     30.03 30.03      
Jan 16 00:56   10 Mostly Cloudy SCT050 BKN085 BKN100 56 46     69%     29.97 29.96   0  
Jan 15 23:56   10 Mostly Cloudy SCT040 BKN065 BKN100 54 45     72%     29.98 29.98      
Jan 15 05:56 E 9 10 Clear CLR 43 39     86% 38   30.06 30.05      
Jan 15 04:56 ESE 8 10 Clear CLR 44 40     85% 40   30.08        
Jan 15 03:56 Calm 10 Clear CLR 44 40     85%     30.11 30.11      
Jan 15 02:56 E 7 10 Clear CLR 43 40     89% 39   30.11 30.11      
Jan 15 01:56 ESE 6 5 Fog/Mist CLR 41 39     93% 37   30.14 30.14      
Jan 15 00:56 E 7 7 Clear CLR 41 39     93% 36   30.13 30.13      
Jan 15 00:40 E 6 5 Fog/Mist CLR 42 40     92% 38   30.14        
Jan 15 00:37 E 6 1.25 Fog/Mist CLR 42 40     92% 38   30.14        
Notice The following observation data may not be complete
Jan 15 00:33   0.5 Fog VV003          %              
Jan 15 00:09 SSE 3 0.75 Fog/Mist VV003 39 37     93% 37   30.14        
Jan 14 23:56 ESE 5 7 Fog FEW120 SCT220 38 36     92% 34   30.14 30.14      
Jun 12 05:56 SW 10 8 Cloudy BKN009 OVC055 55 50     83%     30.03        
Jun 11 19:56 WSW 7 10 Partly Cloudy FEW055 FEW120 SCT170 SCT250 59 47     64%     30.03 30.03      
Jun 11 18:56 W 9 10 Partly Cloudy FEW050 FEW110 SCT210 SCT250 59 48     67%     30.02 30.02      
Jun 10 18:56 WSW 3 10 Mostly Cloudy FEW050 SCT080 SCT120 BKN240 57 47     69%     29.92        
Jun 10 16:56 WSW 11 10 Mostly Cloudy FEW030 SCT045 SCT070 SCT210 BKN250 58 47     67%     29.91        
Jun 10 14:56 W 9 10 Mostly Cloudy FEW026 SCT042 SCT110 BKN220 BKN250 59 47     64%     29.91 29.91      
Jun 09 23:56 SE 7 10 Mostly Cloudy FEW032 BKN070 BKN090 54 45     72%     29.88 29.88      
Jun 08 18:56 ESE 5 10 Light Rain SCT032 BKN045 BKN060 OVC140 56 49     77%       29.94 0    
Jun 07 21:56 3 10 Cloudy FEW050 SCT090 BKN110 OVC220 60 42     51%              
Jun 07 11:56 WNW 7 10 Mostly Cloudy FEW050 SCT120 BKN190 63 47     56%     29.79 29.79      
Jun 07 05:56 Calm 10 Cloudy FEW120 SCT160 OVC250 52 43     71%     29.9